Location: Newark
(47.3000°N, 8.0500°E)
Time: 11:12:30
(UTC+00:00)

OTV 5 (USA 277) - Pass Details

Date: 26 August 2019
Orbit: 295 x 339 km, 54.5° (Epoch: 08 September)

Event Time Altitude Azimuth Distance (km) Brightness Sun altitude
Rises 19:56:46 0° 249° (WSW) 1,998 ? -15.6°
Reaches altitude 10° 19:58:44 10° 255° (WSW) 1,171 ? -15.8°
Maximum altitude 20:01:16 49° 332° (NNW) 398 ? -16.2°
Enters shadow 20:02:46 20° 42° (NE) 767 ? -16.4°
